| time (UTC) | temp F | wind direction | speed MPH | gust MPH | rain 1hr in | rain 24hr in | rain mn in | humidity % | barometer mb |
| 20260901172314 | 88 | 152 | 0.0 | 1.0 | 0.00 | 0.00 | 0.00 | 70 | 1014.8 |
| 20260901171811 | 88 | 358 | 2.0 | 2.0 | 0.00 | 0.00 | 0.00 | 70 | 1014.9 |
| 20260901171311 | 89 | 218 | 2.0 | 2.0 | 0.00 | 0.00 | 0.00 | 70 | 1015.0 |
| 20260901170811 | 89 | 155 | 2.0 | 2.0 | 0.00 | 0.00 | 0.00 | 71 | 1015.0 |
| 20260901170311 | 88 | 260 | 2.0 | 2.0 | 0.00 | 0.00 | 0.00 | 71 | 1015.0 |
| 20260901165809 | 88 | 161 | 0.0 | 0.0 | 0.00 | 0.00 | 0.00 | 71 | 1015.1 |
| 20260901165306 | 88 | 273 | 1.0 | 1.0 | 0.00 | 0.00 | 0.00 | 72 | 1015.1 |
| 20260901164801 | 88 | 281 | 5.0 | 5.0 | 0.00 | 0.00 | 0.00 | 71 | 1015.1 |
| 20260901164256 | 88 | 155 | 1.0 | 1.0 | 0.00 | 0.00 | 0.00 | 71 | 1015.4 |
| 20260901163751 | 88 | 143 | 0.0 | 0.0 | 0.00 | 0.00 | 0.00 | 71 | 1015.3 |
| 20260901163251 | 89 | 150 | 0.0 | 1.0 | 0.00 | 0.00 | 0.00 | 70 | 1015.2 |
| 20260901162746 | 88 | 153 | 1.0 | 2.0 | 0.00 | 0.00 | 0.00 | 71 | 1015.3 |
| 20260901162245 | 88 | 146 | 0.0 | 0.0 | 0.00 | 0.00 | 0.00 | 70 | 1015.4 |
| 20260901161744 | 89 | 27 | 4.0 | 6.0 | 0.00 | 0.00 | 0.00 | 70 | 1015.4 |
| 20260901161239 | 89 | 137 | 1.0 | 1.0 | 0.00 | 0.00 | 0.00 | 71 | 1015.3 |
| 20260901160735 | 88 | 135 | 1.0 | 2.0 | 0.00 | 0.00 | 0.00 | 72 | 1015.3 |
| 20260901160231 | 88 | 143 | 4.0 | 7.0 | 0.00 | 0.00 | 0.00 | 72 | 1015.3 |
| 20260901155729 | 87 | 164 | 0.0 | 0.0 | 0.00 | 0.00 | 0.00 | 72 | 1015.2 |
| 20260901155224 | 87 | 342 | 5.0 | 5.0 | 0.00 | 0.00 | 0.00 | 72 | 1015.1 |
| 20260901154719 | 87 | 287 | 5.0 | 6.0 | 0.00 | 0.00 | 0.00 | 72 | 1015.2 |
| 20260901154209 | 88 | 157 | 1.0 | 2.0 | 0.00 | 0.00 | 0.00 | 72 | 1015.2 |
| 20260901153704 | 87 | 155 | 0.0 | 1.0 | 0.00 | 0.00 | 0.00 | 72 | 1015.3 |
| 20260901153203 | 87 | 48 | 2.0 | 2.0 | 0.00 | 0.00 | 0.00 | 72 | 1015.3 |
| 20260901152658 | 87 | 19 | 1.0 | 1.0 | 0.00 | 0.00 | 0.00 | 73 | 1015.3 |
| 20260901152156 | 87 | 9 | 2.0 | 2.0 | 0.00 | 0.00 | 0.00 | 73 | 1015.3 |
| 20260901151653 | 87 | 44 | 1.0 | 1.0 | 0.00 | 0.00 | 0.00 | 73 | 1015.5 |
| 20260901151152 | 87 | 48 | 1.0 | 1.0 | 0.00 | 0.00 | 0.00 | 74 | 1015.2 |
| 20260901150651 | 87 | 66 | 1.0 | 1.0 | 0.00 | 0.00 | 0.00 | 74 | 1015.3 |
| 20260901150149 | 86 | 111 | 0.0 | 0.0 | 0.00 | 0.00 | 0.00 | 75 | 1015.4 |
| 20260901145648 | 86 | 350 | 0.0 | 2.0 | 0.00 | 0.00 | 0.00 | 76 | 1015.4 |
| 20260901145148 | 87 | 113 | 0.0 | 1.0 | 0.00 | 0.00 | 0.00 | 75 | 1015.5 |
| 20260901144644 | 86 | 157 | 0.0 | 0.0 | 0.00 | 0.00 | 0.00 | 76 | 1015.3 |
| 20260901144138 | 87 | 106 | 1.0 | 1.0 | 0.00 | 0.00 | 0.00 | 75 | 1015.4 |
| 20260901143633 | 87 | 57 | 1.0 | 1.0 | 0.00 | 0.00 | 0.00 | 75 | 1015.2 |
| 20260901143130 | 86 | 145 | 2.0 | 2.0 | 0.00 | 0.00 | 0.00 | 76 | 1015.5 |
| 20260901142626 | 86 | 142 | 0.0 | 1.0 | 0.00 | 0.00 | 0.00 | 77 | 1015.5 |
| 20260901142125 | 86 | 191 | 1.0 | 1.0 | 0.00 | 0.00 | 0.00 | 77 | 1015.6 |
| 20260901141619 | 86 | 149 | 1.0 | 1.0 | 0.00 | 0.00 | 0.00 | 75 | 1015.5 |
| 20260901141114 | 86 | 155 | 0.0 | 0.0 | 0.00 | 0.00 | 0.00 | 77 | 1015.5 |
| 20260901140613 | 84 | 147 | 1.0 | 1.0 | 0.00 | 0.00 | 0.00 | 80 | 1015.6 |
| 20260901140112 | 83 | 156 | 0.0 | 0.0 | 0.00 | 0.00 | 0.00 | 81 | 1015.8 |
| 20260901135612 | 82 | 167 | 0.0 | 0.0 | 0.00 | 0.00 | 0.00 | 82 | 1015.3 |
| 20260901135107 | 81 | 181 | 0.0 | 0.0 | 0.00 | 0.00 | 0.00 | 85 | 1015.7 |
| 20260901134603 | 80 | 146 | 0.0 | 0.0 | 0.00 | 0.00 | 0.00 | 87 | 1015.4 |
| 20260901134058 | 80 | 153 | 0.0 | 0.0 | 0.00 | 0.00 | 0.00 | 88 | 1015.5 |
| 20260901133557 | 79 | 148 | 0.0 | 0.0 | 0.00 | 0.00 | 0.00 | 89 | 1015.3 |
| 20260901133056 | 79 | 151 | 0.0 | 0.0 | 0.00 | 0.00 | 0.00 | 89 | 1015.5 |
| 20260901132551 | 78 | 152 | 0.0 | 0.0 | 0.00 | 0.00 | 0.00 | 89 | 1015.3 |
| 20260901132051 | 78 | 151 | 0.0 | 0.0 | 0.00 | 0.00 | 0.00 | 89 | 1015.4 |
| 20260901131550 | 78 | 150 | 0.0 | 0.0 | 0.00 | 0.00 | 0.00 | 90 | 1015.2 |
| 20260901131045 | 78 | 149 | 0.0 | 0.0 | 0.00 | 0.00 | 0.00 | 90 | 1015.2 |
| 20260901130540 | 78 | 163 | 0.0 | 0.0 | 0.00 | 0.00 | 0.00 | 90 | 1015.3 |
| 20260901130038 | 78 | 143 | 0.0 | 0.0 | 0.00 | 0.00 | 0.00 | 90 | 1014.8 |
| 20260901125537 | 78 | 148 | 0.0 | 0.0 | 0.00 | 0.00 | 0.00 | 90 | 1015.0 |
| 20260901125033 | 78 | 147 | 0.0 | 0.0 | 0.00 | 0.00 | 0.00 | 90 | 1015.1 |
| 20260901124532 | 78 | 131 | 0.0 | 0.0 | 0.00 | 0.00 | 0.00 | 90 | 1014.9 |
| 20260901124027 | 78 | 68 | 0.0 | 1.0 | 0.00 | 0.00 | 0.00 | 90 | 1015.0 |
| 20260901123522 | 78 | 139 | 0.0 | 0.0 | 0.00 | 0.00 | 0.00 | 90 | 1015.0 |
| 20260901123022 | 78 | 152 | 0.0 | 0.0 | 0.00 | 0.00 | 0.00 | 90 | 1014.8 |
| 20260901122520 | 78 | 153 | 0.0 | 0.0 | 0.00 | 0.00 | 0.00 | 90 | 1014.8 |
| 20260901122020 | 78 | 85 | 0.0 | 0.0 | 0.00 | 0.00 | 0.00 | 90 | 1014.5 |
| 20260901121515 | 78 | 128 | 0.0 | 0.0 | 0.00 | 0.00 | 0.00 | 91 | 1014.5 |
| 20260901121010 | 78 | 145 | 1.0 | 1.0 | 0.00 | 0.00 | 0.00 | 91 | 1014.7 |
| 20260901120509 | 78 | 137 | 0.0 | 1.0 | 0.00 | 0.00 | 0.00 | 91 | 1014.8 |
| 20260901120005 | 78 | 113 | 0.0 | 0.0 | 0.00 | 0.00 | 0.00 | 90 | 1014.8 |
| 20260901115500 | 78 | 151 | 0.0 | 0.0 | 0.00 | 0.00 | 0.00 | 90 | 1014.6 |
| 20260901114957 | 78 | 150 | 0.0 | 0.0 | 0.00 | 0.00 | 0.00 | 90 | 1014.7 |
| 20260901114453 | 78 | 69 | 0.0 | 0.0 | 0.00 | 0.00 | 0.00 | 90 | 1014.5 |
| 20260901113951 | 78 | 68 | 0.0 | 0.0 | 0.00 | 0.00 | 0.00 | 90 | 1014.5 |
| 20260901113450 | 78 | 69 | 0.0 | 0.0 | 0.00 | 0.00 | 0.00 | 90 | 1014.4 |
| 20260901112946 | 78 | 66 | 0.0 | 0.0 | 0.00 | 0.00 | 0.00 | 90 | 1014.3 |
| 20260901112441 | 78 | 66 | 0.0 | 0.0 | 0.00 | 0.00 | 0.00 | 90 | 1014.3 |
| 20260901111936 | 78 | 66 | 0.0 | 0.0 | 0.00 | 0.00 | 0.00 | 90 | 1014.4 |
| 20260901111434 | 78 | 66 | 0.0 | 0.0 | 0.00 | 0.00 | 0.00 | 90 | 1014.4 |
| 20260901110932 | 78 | 65 | 0.0 | 0.0 | 0.00 | 0.00 | 0.00 | 89 | 1014.2 |
| 20260901110428 | 78 | 64 | 0.0 | 0.0 | 0.00 | 0.00 | 0.00 | 89 | 1014.3 |
| 20260901105925 | 78 | 66 | 0.0 | 0.0 | 0.00 | 0.00 | 0.00 | 89 | 1014.1 |
| 20260901105420 | 78 | 68 | 0.0 | 0.0 | 0.00 | 0.00 | 0.00 | 89 | 1014.3 |
| 20260901104915 | 78 | 66 | 0.0 | 0.0 | 0.00 | 0.00 | 0.00 | 89 | 1014.2 |
| 20260901104411 | 78 | 64 | 0.0 | 0.0 | 0.00 | 0.00 | 0.00 | 89 | 1014.5 |
| 20260901103906 | 78 | 64 | 0.0 | 0.0 | 0.00 | 0.00 | 0.00 | 89 | 1014.1 |
| 20260901103406 | 77 | 63 | 0.0 | 0.0 | 0.00 | 0.00 | 0.00 | 89 | 1014.3 |
| 20260901102901 | 78 | 63 | 0.0 | 0.0 | 0.00 | 0.00 | 0.00 | 89 | 1014.1 |
| 20260901102355 | 78 | 63 | 0.0 | 0.0 | 0.00 | 0.00 | 0.00 | 89 | 1014.2 |
| 20260901101851 | 78 | 63 | 0.0 | 0.0 | 0.00 | 0.00 | 0.00 | 89 | 1014.2 |
| 20260901101345 | 78 | 63 | 0.0 | 0.0 | 0.00 | 0.00 | 0.00 | 89 | 1014.2 |
| 20260901100844 | 77 | 66 | 0.0 | 0.0 | 0.00 | 0.00 | 0.00 | 89 | 1014.1 |
| 20260901100339 | 78 | 66 | 0.0 | 0.0 | 0.00 | 0.00 | 0.00 | 89 | 1014.0 |
| 20260901095839 | 78 | 67 | 0.0 | 0.0 | 0.00 | 0.00 | 0.00 | 89 | 1013.9 |
| 20260901095336 | 78 | 138 | 0.0 | 0.0 | 0.00 | 0.00 | 0.00 | 89 | 1014.1 |
| 20260901094830 | 78 | 155 | 0.0 | 0.0 | 0.00 | 0.00 | 0.00 | 89 | 1014.3 |
| 20260901094325 | 78 | 162 | 0.0 | 0.0 | 0.00 | 0.00 | 0.00 | 89 | 1014.1 |
| 20260901093820 | 78 | 146 | 0.0 | 0.0 | 0.00 | 0.00 | 0.00 | 89 | 1014.2 |
| 20260901093319 | 78 | 147 | 0.0 | 0.0 | 0.00 | 0.00 | 0.00 | 89 | 1014.2 |
| 20260901092816 | 78 | 155 | 0.0 | 0.0 | 0.00 | 0.00 | 0.00 | 89 | 1014.1 |
| 20260901092311 | 78 | 149 | 0.0 | 0.0 | 0.00 | 0.00 | 0.00 | 89 | 1014.3 |
| 20260901091807 | 78 | 150 | 0.0 | 0.0 | 0.00 | 0.00 | 0.00 | 88 | 1014.1 |
| 20260901091306 | 78 | 149 | 0.0 | 0.0 | 0.00 | 0.00 | 0.00 | 88 | 1014.1 |
| 20260901090802 | 78 | 148 | 0.0 | 0.0 | 0.00 | 0.00 | 0.00 | 88 | 1014.2 |
| 20260901090256 | 78 | 151 | 0.0 | 0.0 | 0.00 | 0.00 | 0.00 | 88 | 1014.3 |
| 20260901085753 | 78 | 147 | 0.0 | 0.0 | 0.00 | 0.00 | 0.00 | 88 | 1014.1 |
| 20260901085248 | 78 | 144 | 0.0 | 0.0 | 0.00 | 0.00 | 0.00 | 88 | 1014.0 |
| 20260901084744 | 78 | 149 | 0.0 | 0.0 | 0.00 | 0.00 | 0.00 | 88 | 1014.1 |
| 20260901084240 | 78 | 150 | 0.0 | 0.0 | 0.00 | 0.00 | 0.00 | 88 | 1014.2 |
| 20260901083740 | 78 | 153 | 0.0 | 0.0 | 0.00 | 0.00 | 0.00 | 88 | 1014.2 |
| 20260901083239 | 78 | 150 | 0.0 | 0.0 | 0.00 | 0.00 | 0.00 | 88 | 1014.2 |
| 20260901082738 | 78 | 150 | 0.0 | 0.0 | 0.00 | 0.00 | 0.00 | 88 | 1014.4 |
| 20260901082233 | 78 | 147 | 0.0 | 0.0 | 0.00 | 0.00 | 0.00 | 88 | 1014.2 |
| 20260901081729 | 78 | 149 | 0.0 | 0.0 | 0.00 | 0.00 | 0.00 | 88 | 1014.2 |
| 20260901081229 | 78 | 151 | 0.0 | 0.0 | 0.00 | 0.00 | 0.00 | 88 | 1014.7 |
| 20260901080724 | 78 | 134 | 0.0 | 0.0 | 0.00 | 0.00 | 0.00 | 88 | 1014.2 |
| 20260901080223 | 79 | 149 | 0.0 | 0.0 | 0.00 | 0.00 | 0.00 | 87 | 1014.4 |
| 20260901075722 | 79 | 150 | 0.0 | 0.0 | 0.00 | 0.00 | 0.00 | 87 | 1014.5 |
| 20260901075218 | 79 | 148 | 0.0 | 0.0 | 0.00 | 0.00 | 0.00 | 87 | 1014.4 |
| 20260901074712 | 79 | 154 | 0.0 | 0.0 | 0.00 | 0.00 | 0.00 | 87 | 1014.3 |
| 20260901074208 | 79 | 150 | 0.0 | 0.0 | 0.00 | 0.00 | 0.00 | 87 | 1014.6 |
| 20260901073704 | 79 | 125 | 0.0 | 0.0 | 0.00 | 0.00 | 0.00 | 87 | 1014.5 |
| 20260901073159 | 80 | 144 | 0.0 | 0.0 | 0.00 | 0.00 | 0.00 | 87 | 1014.5 |
| 20260901072654 | 80 | 141 | 0.0 | 0.0 | 0.00 | 0.00 | 0.00 | 87 | 1014.6 |
| 20260901072148 | 80 | 147 | 0.0 | 0.0 | 0.00 | 0.00 | 0.00 | 86 | 1014.3 |
| 20260901071643 | 80 | 140 | 0.0 | 0.0 | 0.00 | 0.00 | 0.00 | 86 | 1014.4 |
| 20260901071143 | 80 | 148 | 0.0 | 0.0 | 0.00 | 0.00 | 0.00 | 86 | 1014.3 |
| 20260901070637 | 80 | 149 | 0.0 | 0.0 | 0.00 | 0.00 | 0.00 | 86 | 1014.4 |
| 20260901070133 | 80 | 150 | 0.0 | 0.0 | 0.00 | 0.00 | 0.00 | 86 | 1014.4 |
| 20260901065631 | 80 | 151 | 0.0 | 0.0 | 0.00 | 0.00 | 0.00 | 85 | 1014.5 |
| 20260901065126 | 80 | 130 | 0.0 | 0.0 | 0.00 | 0.00 | 0.00 | 85 | 1014.5 |
| 20260901064623 | 80 | 147 | 0.0 | 0.0 | 0.00 | 0.00 | 0.00 | 85 | 1014.3 |
| 20260901064120 | 80 | 151 | 0.0 | 0.0 | 0.00 | 0.00 | 0.00 | 85 | 1014.6 |
| 20260901063616 | 81 | 146 | 0.0 | 0.0 | 0.00 | 0.00 | 0.00 | 85 | 1014.7 |
| 20260901063112 | 81 | 137 | 0.0 | 0.0 | 0.00 | 0.00 | 0.00 | 85 | 1014.5 |
| 20260901062608 | 81 | 136 | 0.0 | 0.0 | 0.00 | 0.00 | 0.00 | 84 | 1014.5 |
| 20260901062103 | 81 | 147 | 0.0 | 0.0 | 0.00 | 0.00 | 0.00 | 84 | 1014.6 |
| 20260901061600 | 81 | 151 | 0.0 | 0.0 | 0.00 | 0.00 | 0.00 | 84 | 1014.6 |
| 20260901061054 | 81 | 152 | 0.0 | 0.0 | 0.00 | 0.00 | 0.00 | 84 | 1014.8 |
| 20260901060549 | 81 | 160 | 0.0 | 0.0 | 0.00 | 0.00 | 0.00 | 84 | 1014.5 |
| 20260901060044 | 81 | 152 | 0.0 | 0.0 | 0.00 | 0.00 | 0.00 | 83 | 1014.7 |
| 20260901055539 | 81 | 151 | 0.0 | 0.0 | 0.00 | 0.00 | 0.00 | 83 | 1014.6 |
| 20260901055036 | 81 | 154 | 0.0 | 0.0 | 0.00 | 0.00 | 0.00 | 83 | 1014.5 |
| 20260901054533 | 82 | 156 | 0.0 | 0.0 | 0.00 | 0.00 | 0.00 | 83 | 1014.5 |
| 20260901054028 | 82 | 154 | 0.0 | 0.0 | 0.00 | 0.00 | 0.00 | 83 | 1014.4 |
| 20260901053524 | 82 | 152 | 0.0 | 0.0 | 0.00 | 0.00 | 0.00 | 82 | 1014.4 |
| 20260901053020 | 82 | 149 | 0.0 | 0.0 | 0.00 | 0.00 | 0.00 | 82 | 1014.4 |
| 20260901052520 | 82 | 146 | 0.0 | 0.0 | 0.00 | 0.00 | 0.00 | 82 | 1014.6 |
| 20260901052020 | 82 | 151 | 0.0 | 0.0 | 0.00 | 0.00 | 0.00 | 82 | 1014.6 |
| 20260901051515 | 82 | 148 | 0.0 | 1.0 | 0.00 | 0.00 | 0.00 | 82 | 1014.1 |
| 20260901051014 | 82 | 157 | 0.0 | 0.0 | 0.00 | 0.00 | 0.00 | 82 | 1014.3 |
| 20260901050509 | 82 | 153 | 0.0 | 1.0 | 0.00 | 0.00 | 0.00 | 82 | 1014.3 |
| 20260901050004 | 82 | 153 | 0.0 | 0.0 | 0.00 | 0.00 | 0.00 | 82 | 1014.1 |
| 20260901045459 | 82 | 165 | 0.0 | 0.0 | 0.00 | 0.00 | 0.00 | 82 | 1014.1 |
| 20260901044954 | 82 | 159 | 0.0 | 0.0 | 0.00 | 0.00 | 0.00 | 82 | 1014.3 |
| 20260901044449 | 82 | 124 | 1.0 | 2.0 | 0.00 | 0.00 | 0.00 | 82 | 1014.3 |
| 20260901043945 | 82 | 144 | 1.0 | 1.0 | 0.00 | 0.00 | 0.00 | 81 | 1014.3 |
| 20260901043442 | 82 | 121 | 1.0 | 1.0 | 0.00 | 0.00 | 0.00 | 81 | 1014.2 |
| 20260901042942 | 82 | 168 | 3.0 | 5.0 | 0.00 | 0.00 | 0.00 | 81 | 1014.0 |
| 20260901042441 | 82 | 158 | 0.0 | 0.0 | 0.00 | 0.00 | 0.00 | 81 | 1014.2 |
| 20260901041936 | 82 | 113 | 1.0 | 1.0 | 0.00 | 0.00 | 0.00 | 81 | 1013.9 |
| 20260901041432 | 82 | 142 | 1.0 | 2.0 | 0.00 | 0.00 | 0.00 | 82 | 1014.2 |
| 20260901040931 | 82 | 142 | 1.0 | 2.0 | 0.00 | 0.00 | 0.00 | 82 | 1014.3 |
| 20260901040426 | 82 | 157 | 1.0 | 1.0 | 0.00 | 0.00 | 0.00 | 84 | 1014.1 |
| 20260901035925 | 81 | 81 | 0.0 | 1.0 | 0.00 | 0.00 | 0.00 | 85 | 1014.2 |
| 20260901035424 | 81 | 140 | 0.0 | 0.0 | 0.00 | 0.00 | 0.00 | 86 | 1014.0 |
| 20260901034923 | 81 | 121 | 0.0 | 0.0 | 0.00 | 0.00 | 0.00 | 86 | 1013.9 |
| 20260901034418 | 82 | 139 | 0.0 | 0.0 | 0.00 | 0.00 | 0.00 | 86 | 1013.7 |
| 20260901033913 | 82 | 136 | 0.0 | 0.0 | 0.00 | 0.00 | 0.00 | 86 | 1013.9 |
| 20260901033412 | 82 | 135 | 0.0 | 0.0 | 0.00 | 0.00 | 0.00 | 85 | 1013.4 |
| 20260901032910 | 82 | 140 | 0.0 | 0.0 | 0.00 | 0.00 | 0.00 | 85 | 1013.4 |
| 20260901032410 | 82 | 140 | 0.0 | 0.0 | 0.00 | 0.00 | 0.00 | 85 | 1013.5 |
| 20260901031905 | 82 | 140 | 0.0 | 0.0 | 0.00 | 0.00 | 0.00 | 85 | 1013.3 |
| 20260901031401 | 82 | 140 | 0.0 | 0.0 | 0.00 | 0.00 | 0.00 | 85 | 1013.0 |
| 20260901030900 | 82 | 139 | 0.0 | 0.0 | 0.00 | 0.00 | 0.00 | 85 | 1013.1 |
| 20260901030356 | 82 | 139 | 0.0 | 0.0 | 0.00 | 0.00 | 0.00 | 85 | 1013.2 |
| 20260901025855 | 82 | 128 | 0.0 | 0.0 | 0.00 | 0.00 | 0.00 | 84 | 1013.0 |
| 20260901025350 | 82 | 143 | 0.0 | 0.0 | 0.00 | 0.00 | 0.00 | 84 | 1013.1 |
| 20260901024845 | 82 | 139 | 0.0 | 0.0 | 0.00 | 0.00 | 0.00 | 84 | 1013.1 |
| 20260901024344 | 82 | 119 | 0.0 | 0.0 | 0.00 | 0.00 | 0.00 | 84 | 1013.1 |
| 20260901023842 | 82 | 154 | 0.0 | 0.0 | 0.00 | 0.00 | 0.00 | 83 | 1013.1 |
| 20260901023338 | 82 | 127 | 0.0 | 0.0 | 0.00 | 0.00 | 0.00 | 83 | 1012.9 |
| 20260901022833 | 82 | 138 | 0.0 | 0.0 | 0.00 | 0.00 | 0.00 | 83 | 1013.0 |
| 20260901022329 | 82 | 135 | 0.0 | 0.0 | 0.00 | 0.00 | 0.00 | 83 | 1012.8 |
| 20260901021824 | 82 | 137 | 0.0 | 0.0 | 0.00 | 0.00 | 0.00 | 83 | 1012.8 |
| 20260901021320 | 82 | 138 | 0.0 | 0.0 | 0.00 | 0.00 | 0.00 | 83 | 1012.7 |
| 20260901020814 | 83 | 139 | 0.0 | 0.0 | 0.00 | 0.00 | 0.00 | 83 | 1012.8 |
| 20260901020309 | 83 | 137 | 0.0 | 0.0 | 0.00 | 0.00 | 0.00 | 82 | 1012.7 |
| 20260901015804 | 83 | 138 | 0.0 | 0.0 | 0.00 | 0.00 | 0.00 | 83 | 1012.8 |
| 20260901015300 | 83 | 140 | 0.0 | 0.0 | 0.00 | 0.00 | 0.00 | 83 | 1012.5 |
| 20260901014759 | 83 | 138 | 0.0 | 0.0 | 0.00 | 0.00 | 0.00 | 82 | 1012.7 |
| 20260901014255 | 83 | 140 | 0.0 | 0.0 | 0.00 | 0.00 | 0.00 | 82 | 1012.7 |
| 20260901013751 | 83 | 139 | 0.0 | 0.0 | 0.00 | 0.00 | 0.00 | 82 | 1012.6 |
| 20260901013246 | 83 | 139 | 0.0 | 0.0 | 0.00 | 0.00 | 0.00 | 82 | 1012.6 |
| 20260901012741 | 83 | 138 | 0.0 | 0.0 | 0.00 | 0.00 | 0.00 | 82 | 1012.5 |
| 20260901012241 | 83 | 139 | 0.0 | 0.0 | 0.00 | 0.00 | 0.00 | 82 | 1012.3 |
| 20260901011737 | 83 | 133 | 0.0 | 0.0 | 0.00 | 0.00 | 0.00 | 82 | 1012.5 |
| 20260901011232 | 84 | 134 | 0.0 | 0.0 | 0.00 | 0.00 | 0.00 | 82 | 1012.6 |
| 20260901010726 | 84 | 129 | 0.0 | 0.0 | 0.00 | 0.00 | 0.00 | 81 | 1012.1 |
| 20260901010221 | 84 | 139 | 0.0 | 0.0 | 0.00 | 0.00 | 0.00 | 80 | 1012.3 |
| 20260901005719 | 84 | 150 | 0.0 | 0.0 | 0.00 | 0.00 | 0.00 | 79 | 1012.2 |
| 20260901005215 | 84 | 148 | 0.0 | 0.0 | 0.00 | 0.00 | 0.00 | 79 | 1012.2 |
| 20260901004715 | 84 | 152 | 0.0 | 0.0 | 0.00 | 0.00 | 0.00 | 79 | 1012.2 |
| 20260901004209 | 84 | 143 | 0.0 | 0.0 | 0.00 | 0.00 | 0.00 | 79 | 1012.5 |
| 20260901003703 | 84 | 145 | 0.0 | 0.0 | 0.00 | 0.00 | 0.00 | 79 | 1012.5 |
| 20260901003203 | 85 | 147 | 0.0 | 0.0 | 0.00 | 0.00 | 0.00 | 79 | 1012.7 |
| 20260901002657 | 85 | 141 | 0.0 | 0.0 | 0.00 | 0.00 | 0.00 | 79 | 1012.5 |
| 20260901002152 | 85 | 139 | 0.0 | 0.0 | 0.00 | 0.00 | 0.00 | 78 | 1012.7 |
| 20260901001648 | 85 | 149 | 0.0 | 0.0 | 0.00 | 0.00 | 0.00 | 78 | 1012.8 |
| 20260901001142 | 85 | 151 | 0.0 | 0.0 | 0.00 | 0.00 | 0.00 | 78 | 1012.5 |
| 20260901000638 | 85 | 155 | 0.0 | 0.0 | 0.00 | 0.00 | 0.00 | 78 | 1012.6 |
| 20260901000133 | 85 | 145 | 0.0 | 0.0 | 0.00 | 0.00 | 0.00 | 78 | 1012.5 |
| 20260831235627 | 85 | 144 | 0.0 | 0.0 | 0.00 | 0.00 | 0.00 | 77 | 1012.2 |
| 20260831235122 | 85 | 156 | 0.0 | 0.0 | 0.00 | 0.00 | 0.00 | 77 | 1012.5 |
| 20260831234621 | 85 | 146 | 0.0 | 0.0 | 0.00 | 0.00 | 0.00 | 77 | 1012.7 |
| 20260831234117 | 85 | 100 | 2.0 | 3.0 | 0.00 | 0.00 | 0.00 | 77 | 1012.7 |
| 20260831233612 | 85 | 205 | 0.0 | 0.0 | 0.00 | 0.00 | 0.00 | 77 | 1012.5 |
| 20260831233108 | 85 | 148 | 1.0 | 1.0 | 0.00 | 0.00 | 0.00 | 77 | 1012.5 |
| 20260831232603 | 85 | 165 | 0.0 | 1.0 | 0.00 | 0.00 | 0.00 | 76 | 1012.5 |
| 20260831232059 | 85 | 164 | 1.0 | 1.0 | 0.00 | 0.00 | 0.00 | 76 | 1012.7 |
| 20260831231555 | 85 | 168 | 0.0 | 0.0 | 0.00 | 0.00 | 0.00 | 75 | 1012.9 |
| 20260831231050 | 86 | 192 | 2.0 | 2.0 | 0.00 | 0.00 | 0.00 | 75 | 1012.9 |
| 20260831230545 | 86 | 252 | 2.0 | 3.0 | 0.00 | 0.00 | 0.00 | 74 | 1012.8 |
| 20260831230040 | 86 | 150 | 3.0 | 3.0 | 0.00 | 0.00 | 0.00 | 74 | 1012.5 |
| 20260831225536 | 86 | 171 | 0.0 | 0.0 | 0.00 | 0.00 | 0.00 | 73 | 1012.6 |
| 20260831225036 | 86 | 92 | 2.0 | 3.0 | 0.00 | 0.00 | 0.00 | 72 | 1012.6 |
| 20260831224531 | 86 | 164 | 3.0 | 5.0 | 0.00 | 0.00 | 0.00 | 71 | 1012.6 |
| 20260831224026 | 88 | 109 | 0.0 | 1.0 | 0.00 | 0.00 | 0.00 | 70 | 1012.3 |
| 20260831223521 | 89 | 159 | 1.0 | 2.0 | 0.00 | 0.00 | 0.00 | 66 | 1012.5 |
| 20260831223018 | 90 | 178 | 7.0 | 8.0 | 0.00 | 0.00 | 0.00 | 65 | 1012.7 |
| 20260831222514 | 91 | 157 | 0.0 | 1.0 | 0.00 | 0.00 | 0.00 | 65 | 1012.6 |
| 20260831222013 | 91 | 151 | 0.0 | 0.0 | 0.00 | 0.00 | 0.00 | 63 | 1012.5 |
| 20260831221509 | 92 | 157 | 1.0 | 2.0 | 0.00 | 0.00 | 0.00 | 62 | 1012.3 |
| 20260831221004 | 93 | 149 | 1.0 | 3.0 | 0.00 | 0.00 | 0.00 | 60 | 1012.3 |
| 20260831220459 | 95 | 55 | 8.0 | 13.0 | 0.00 | 0.00 | 0.00 | 56 | 1012.1 |
| 20260831215954 | 95 | 144 | 0.0 | 0.0 | 0.00 | 0.00 | 0.00 | 54 | 1012.1 |
| 20260831215450 | 96 | 149 | 2.0 | 2.0 | 0.00 | 0.00 | 0.00 | 53 | 1012.2 |
| 20260831214946 | 96 | 137 | 1.0 | 2.0 | 0.00 | 0.00 | 0.00 | 53 | 1012.0 |
| 20260831214443 | 96 | 117 | 5.0 | 7.0 | 0.00 | 0.00 | 0.00 | 53 | 1012.5 |
| 20260831213939 | 96 | 77 | 1.0 | 1.0 | 0.00 | 0.00 | 0.00 | 52 | 1012.2 |
| 20260831213435 | 97 | 175 | 1.0 | 1.0 | 0.00 | 0.00 | 0.00 | 50 | 1012.5 |
| 20260831212935 | 98 | 69 | 1.0 | 1.0 | 0.00 | 0.00 | 0.00 | 51 | 1012.3 |
| 20260831212431 | 98 | 157 | 0.0 | 1.0 | 0.00 | 0.00 | 0.00 | 51 | 1012.6 |
| 20260831211931 | 98 | 199 | 2.0 | 2.0 | 0.00 | 0.00 | 0.00 | 50 | 1012.5 |
| 20260831211426 | 101 | 193 | 4.0 | 6.0 | 0.00 | 0.00 | 0.00 | 48 | 1012.6 |
| 20260831210925 | 102 | 166 | 1.0 | 1.0 | 0.00 | 0.00 | 0.00 | 47 | 1012.5 |
| 20260831210421 | 99 | 160 | 1.0 | 1.0 | 0.00 | 0.00 | 0.00 | 50 | 1012.6 |
| 20260831205917 | 101 | 204 | 1.0 | 2.0 | 0.00 | 0.00 | 0.00 | 47 | 1012.8 |
| 20260831205412 | 102 | 258 | 3.0 | 3.0 | 0.00 | 0.00 | 0.00 | 48 | 1012.8 |
| 20260831204907 | 101 | 187 | 3.0 | 5.0 | 0.00 | 0.00 | 0.00 | 48 | 1013.0 |
| 20260831204406 | 99 | 119 | 0.0 | 1.0 | 0.00 | 0.00 | 0.00 | 50 | 1012.9 |
| 20260831203906 | 101 | 76 | 0.0 | 0.0 | 0.00 | 0.00 | 0.00 | 48 | 1013.0 |
| 20260831203400 | 97 | 125 | 0.0 | 0.0 | 0.00 | 0.00 | 0.00 | 52 | 1012.9 |
| 20260831202858 | 98 | 152 | 1.0 | 1.0 | 0.00 | 0.00 | 0.00 | 52 | 1013.2 |
| 20260831202354 | 98 | 191 | 1.0 | 2.0 | 0.00 | 0.00 | 0.00 | 51 | 1013.3 |
| 20260831201853 | 100 | 176 | 1.0 | 1.0 | 0.00 | 0.00 | 0.00 | 49 | 1013.3 |
| 20260831201352 | 100 | 240 | 5.0 | 6.0 | 0.00 | 0.00 | 0.00 | 49 | 1013.2 |
| 20260831200849 | 99 | 147 | 1.0 | 2.0 | 0.00 | 0.00 | 0.00 | 50 | 1013.3 |
| 20260831200343 | 98 | 169 | 2.0 | 2.0 | 0.00 | 0.00 | 0.00 | 52 | 1013.5 |
| 20260831195838 | 98 | 183 | 0.0 | 0.0 | 0.00 | 0.00 | 0.00 | 52 | 1013.8 |
| 20260831195334 | 99 | 199 | 1.0 | 1.0 | 0.00 | 0.00 | 0.00 | 50 | 1013.7 |
| 20260831194830 | 100 | 267 | 4.0 | 5.0 | 0.00 | 0.00 | 0.00 | 51 | 1013.6 |
| 20260831194325 | 97 | 287 | 2.0 | 2.0 | 0.00 | 0.00 | 0.00 | 54 | 1013.7 |
| 20260831193824 | 99 | 149 | 5.0 | 6.0 | 0.00 | 0.00 | 0.00 | 54 | 1013.9 |
| 20260831193319 | 98 | 169 | 4.0 | 5.0 | 0.00 | 0.00 | 0.00 | 53 | 1014.0 |
| 20260831192814 | 96 | 160 | 0.0 | 1.0 | 0.00 | 0.00 | 0.00 | 55 | 1014.1 |
| 20260831192309 | 95 | 161 | 0.0 | 0.0 | 0.00 | 0.00 | 0.00 | 57 | 1014.2 |
| 20260831191805 | 95 | 150 | 0.0 | 0.0 | 0.00 | 0.00 | 0.00 | 57 | 1014.3 |
| 20260831191301 | 93 | 161 | 0.0 | 0.0 | 0.00 | 0.00 | 0.00 | 59 | 1014.2 |
| 20260831190756 | 93 | 154 | 0.0 | 1.0 | 0.00 | 0.00 | 0.00 | 59 | 1014.4 |
| 20260831190250 | 96 | 185 | 1.0 | 1.0 | 0.00 | 0.00 | 0.00 | 55 | 1014.3 |
| 20260831185744 | 98 | 210 | 2.0 | 3.0 | 0.00 | 0.00 | 0.00 | 54 | 1014.5 |
| 20260831185240 | 100 | 172 | 2.0 | 2.0 | 0.00 | 0.00 | 0.00 | 52 | 1014.6 |
| 20260831184739 | 98 | 236 | 3.0 | 6.0 | 0.00 | 0.00 | 0.00 | 54 | 1014.7 |
| 20260831184235 | 96 | 187 | 0.0 | 0.0 | 0.00 | 0.00 | 0.00 | 56 | 1014.9 |
| 20260831183735 | 96 | 215 | 5.0 | 6.0 | 0.00 | 0.00 | 0.00 | 56 | 1014.7 |
| 20260831183230 | 94 | 159 | 0.0 | 0.0 | 0.00 | 0.00 | 0.00 | 59 | 1015.1 |
| 20260831182728 | 97 | 203 | 0.0 | 1.0 | 0.00 | 0.00 | 0.00 | 56 | 1015.1 |
| 20260831182224 | 96 | 266 | 5.0 | 7.0 | 0.00 | 0.00 | 0.00 | 57 | 1015.1 |
| 20260831181724 | 97 | 164 | 1.0 | 2.0 | 0.00 | 0.00 | 0.00 | 56 | 1015.1 |
| 20260831181220 | 94 | 169 | 0.0 | 0.0 | 0.00 | 0.00 | 0.00 | 59 | 1015.3 |
| 20260831180714 | 94 | 235 | 5.0 | 6.0 | 0.00 | 0.00 | 0.00 | 60 | 1015.2 |
| 20260831180209 | 95 | 256 | 2.0 | 2.0 | 0.00 | 0.00 | 0.00 | 59 | 1015.3 |
| 20260831175709 | 95 | 139 | 3.0 | 3.0 | 0.00 | 0.00 | 0.00 | 59 | 1015.5 |
| 20260831175206 | 95 | 275 | 4.0 | 5.0 | 0.00 | 0.00 | 0.00 | 60 | 1015.5 |
| 20260831174705 | 93 | 300 | 3.0 | 5.0 | 0.00 | 0.00 | 0.00 | 61 | 1015.3 |
| 20260831174201 | 92 | 125 | 0.0 | 0.0 | 0.00 | 0.00 | 0.00 | 62 | 1015.6 |
| 20260831173659 | 93 | 98 | 3.0 | 3.0 | 0.00 | 0.00 | 0.00 | 62 | 1015.6 |
| 20260831173155 | 93 | 313 | 2.0 | 3.0 | 0.00 | 0.00 | 0.00 | 60 | 1015.5 |
| 20260831172655 | 94 | 176 | 3.0 | 3.0 | 0.00 | 0.00 | 0.00 | 60 | 1015.7 |